Location: Kergonan
(48.2337°N, 4.5518°W)
Time: 18:24:41
(UTC+00:00)

Cosmos 1980 Rocket - Pass Details

Date: 18 January 2020
Orbit: 831 x 848 km, 71.0° (Epoch: 27 February)

Event Time Altitude Azimuth Distance (km) Brightness Sun altitude
Rises 05:17:52 0° 174° (S) 3,397 5.4 -26.9°
Reaches altitude 10° 05:20:34 10° 164° (SSE) 2,466 4.8 -26.4°
Maximum altitude 05:25:25 30° 104° (ESE) 1,472 4.0 -25.6°
Drops below altitude 10° 05:30:17 10° 45° (NE) 2,474 5.1 -24.8°
Sets 05:32:59 0° 36° (NE) 3,412 5.8 -24.3°
